When you browse on this site, cookies collect data to enhance your experience and personalize the content and advertising you see.
Visit our Privacy Policy to learn more. By continuing to use the site, you agree to this use of cookies and data.
  • In Hungary
  • List of Countries
  • For 7 days
  • Water Temperature
  • Satellite Maps
  • Weather Map
  • News
  • Weather Widgets
  • user-avatar
    Login

    Hourly Weather Mieres

    Today, 19 January, Saturday

    Time Temperature Precipitation Wind Pressure Humidity
    00:00 +5°C° 0 mm 1 mps 715 mmHg 91%
    01:00 +5°C° 0 mm 1 mps 714 mmHg 90%
    02:00 +5°C° 0 mm 1 mps 714 mmHg 89%
    03:00 +4°C° 0 mm 2 mps 714 mmHg 88%
    04:00 +4°C° 0 mm 2 mps 714 mmHg 86%
    05:00 +4°C° 0 mm 2 mps 713 mmHg 85%
    06:00 +4°C° 0 mm 2 mps 713 mmHg 84%
    07:00 +5°C° 0.1 mm 2 mps 713 mmHg 82%
    08:00 +5°C° 0.1 mm 2 mps 712 mmHg 80%
    09:00 +6°C° 0.1 mm 2 mps 712 mmHg 78%
    10:00 +6°C° 0.6 mm 2 mps 711 mmHg 79%
    11:00 +7°C° 0.6 mm 2 mps 711 mmHg 79%
    12:00 +7°C° 0.6 mm 2 mps 710 mmHg 79%
    13:00 +7°C° 0.4 mm 2 mps 710 mmHg 80%
    14:00 +7°C° 0.4 mm 2 mps 709 mmHg 81%
    15:00 +7°C° 0.4 mm 2 mps 709 mmHg 82%
    16:00 +6°C° 0.5 mm 2 mps 709 mmHg 85%
    17:00 +7°C° 0.5 mm 1 mps 709 mmHg 87%
    18:00 +7°C° 0.5 mm 1 mps 709 mmHg 89%
    19:00 +7°C° 0.9 mm 1 mps 709 mmHg 91%
    20:00 +7°C° 0.9 mm 1 mps 709 mmHg 93%
    21:00 +6°C° 0.9 mm 1 mps 710 mmHg 96%
    22:00 +6°C° 0.4 mm 1 mps 710 mmHg 96%
    23:00 +6°C° 0.4 mm 1 mps 711 mmHg 97%

    Tomorrow, 20 January, Sunday

    Time Temperature Precipitation Wind Pressure Humidity
    00:00 +6°C° 0.4 mm 1 mps 711 mmHg 98%
    01:00 +6°C° 0.6 mm 1 mps 712 mmHg 97%
    02:00 +6°C° 0.6 mm 1 mps 712 mmHg 97%
    03:00 +5°C° 0.6 mm 2 mps 712 mmHg 97%
    04:00 +5°C° 0.4 mm 2 mps 713 mmHg 97%
    05:00 +5°C° 0.4 mm 2 mps 713 mmHg 96%
    06:00 +5°C° 0.4 mm 2 mps 713 mmHg 96%
    07:00 +5°C° 0.3 mm 2 mps 714 mmHg 95%
    08:00 +5°C° 0.3 mm 2 mps 714 mmHg 95%
    09:00 +5°C° 0.3 mm 2 mps 715 mmHg 94%
    10:00 +6°C° 0.5 mm 2 mps 715 mmHg 93%
    11:00 +6°C° 0.5 mm 2 mps 715 mmHg 92%
    12:00 +7°C° 0.5 mm 2 mps 716 mmHg 91%
    13:00 +7°C° 1 mm 2 mps 716 mmHg 92%
    14:00 +5°C° 1 mm 3 mps 716 mmHg 93%
    15:00 +5°C° 1 mm 3 mps 715 mmHg 94%
    16:00 +6°C° 0.9 mm 2 mps 716 mmHg 95%
    17:00 +6°C° 0.9 mm 2 mps 716 mmHg 96%
    18:00 +5°C° 0.9 mm 2 mps 717 mmHg 97%
    19:00 +5°C° 0.7 mm 2 mps 717 mmHg 97%
    20:00 +5°C° 0.7 mm 2 mps 718 mmHg 97%
    21:00 +5°C° 0.7 mm 2 mps 718 mmHg 97%
    22:00 +5°C° 0.5 mm 2 mps 719 mmHg 97%
    23:00 +5°C° 0.5 mm 2 mps 719 mmHg 97%

    Day after tomorrow, 21 January, Monday

    Time Temperature Precipitation Wind Pressure Humidity
    00:00 +4°C° 0.5 mm 2 mps 719 mmHg 97%
    01:00 +4°C° 0.4 mm 2 mps 719 mmHg 97%
    02:00 +5°C° 0.4 mm 1 mps 720 mmHg 98%
    03:00 +5°C° 0.4 mm 1 mps 720 mmHg 98%
    04:00 +5°C° 0.2 mm 1 mps 720 mmHg 98%
    05:00 +4°C° 0.2 mm 1 mps 720 mmHg 98%
    06:00 +4°C° 0.2 mm 1 mps 720 mmHg 98%
    07:00 +4°C° 0 mm 1 mps 720 mmHg 97%
    08:00 +4°C° 0 mm 1 mps 721 mmHg 96%
    09:00 +4°C° 0 mm 1 mps 721 mmHg 95%
    10:00 +5°C° 0 mm 1 mps 721 mmHg 91%
    11:00 +6°C° 0 mm 1 mps 721 mmHg 87%
    12:00 +7°C° 0 mm 1 mps 722 mmHg 83%
    13:00 +7°C° 0 mm 1 mps 721 mmHg 80%
    14:00 +8°C° 0 mm 1 mps 721 mmHg 78%
    15:00 +8°C° 0 mm 1 mps 721 mmHg 76%
    16:00 +6°C° 0 mm 1 mps 721 mmHg 81%
    17:00 +5°C° 0 mm 1 mps 721 mmHg 86%
    18:00 +3°C° 0 mm 1 mps 720 mmHg 91%
    19:00 +3°C° 0 mm 1 mps 721 mmHg 90%
    20:00 +3°C° 0 mm 1 mps 721 mmHg 88%
    21:00 +1°C° 0 mm 2 mps 721 mmHg 87%
    22:00 +1°C° 0 mm 2 mps 720 mmHg 84%
    23:00 +1°C° 0 mm 2 mps 720 mmHg 81%

    22 January, Tuesday

    Time Temperature Precipitation Wind Pressure Humidity
    00:00 +1°C° 0 mm 2 mps 720 mmHg 78%
    01:00 +2°C° 0 mm 2 mps 719 mmHg 77%
    02:00 +3°C° 0 mm 2 mps 719 mmHg 76%
    03:00 +3°C° 0 mm 2 mps 718 mmHg 74%
    04:00 +4°C° 0.2 mm 2 mps 718 mmHg 77%
    05:00 +4°C° 0.2 mm 2 mps 717 mmHg 80%
    06:00 +5°C° 0.2 mm 2 mps 717 mmHg 83%
    07:00 +5°C° 0.5 mm 2 mps 717 mmHg 87%
    08:00 +5°C° 0.5 mm 2 mps 717 mmHg 92%
    09:00 +5°C° 0.5 mm 3 mps 717 mmHg 96%
    10:00 +4°C° 0.4 mm 3 mps 717 mmHg 94%
    11:00 +4°C° 0.4 mm 3 mps 717 mmHg 92%
    12:00 +4°C° 0.4 mm 4 mps 716 mmHg 90%
    13:00 +4°C° 0.9 mm 4 mps 716 mmHg 91%
    14:00 +4°C° 0.9 mm 4 mps 715 mmHg 92%
    15:00 +3°C° 0.9 mm 4 mps 714 mmHg 93%
    16:00 +3°C° 2.1 mm 4 mps 714 mmHg 93%
    17:00 +3°C° 2.1 mm 4 mps 714 mmHg 94%
    18:00 +2°C° 2.1 mm 5 mps 714 mmHg 95%
    19:00 +2°C° 2 mm 5 mps 714 mmHg 94%
    20:00 +2°C° 2 mm 5 mps 714 mmHg 93%
    21:00 +2°C° 2 mm 5 mps 714 mmHg 93%
    22:00 +2°C° 2.2 mm 6 mps 714 mmHg 93%
    23:00 +1°C° 2.2 mm 6 mps 714 mmHg 93%

    23 January, Wednesday

    Time Temperature Precipitation Wind Pressure Humidity
    00:00 +1°C° 2.2 mm 6 mps 714 mmHg 93%
    01:00 +1°C° 1.9 mm 5 mps 713 mmHg 94%
    02:00 +1°C° 1.9 mm 5 mps 713 mmHg 95%
    03:00 +3°C° 1.9 mm 4 mps 712 mmHg 95%
    04:00 +3°C° 2.6 mm 4 mps 712 mmHg 96%
    05:00 +3°C° 2.6 mm 4 mps 711 mmHg 97%
    06:00 +3°C° 2.6 mm 3 mps 710 mmHg 98%
    07:00 +4°C° 3.3 mm 4 mps 710 mmHg 98%
    08:00 +3°C° 3.3 mm 5 mps 710 mmHg 97%
    09:00 +5°C° 3.3 mm 5 mps 710 mmHg 97%
    10:00 +5°C° 2.6 mm 5 mps 710 mmHg 97%
    11:00 +5°C° 2.6 mm 5 mps 710 mmHg 97%
    12:00 +5°C° 2.6 mm 5 mps 710 mmHg 97%
    13:00 +3°C° 2.2 mm 5 mps 710 mmHg 97%
    14:00 +3°C° 2.2 mm 5 mps 710 mmHg 97%
    15:00 +4°C° 2.2 mm 4 mps 709 mmHg 97%
    16:00 +4°C° 2.6 mm 4 mps 709 mmHg 97%
    17:00 +4°C° 2.6 mm 4 mps 710 mmHg 98%
    18:00 +4°C° 2.6 mm 4 mps 710 mmHg 98%
    19:00 +4°C° 2.4 mm 4 mps 710 mmHg 98%
    20:00 +4°C° 2.4 mm 4 mps 710 mmHg 98%
    21:00 +4°C° 2.4 mm 3 mps 710 mmHg 98%
    22:00 +4°C° 2.2 mm 4 mps 710 mmHg 98%
    23:00 +4°C° 2.2 mm 4 mps 710 mmHg 98%

    24 January, Thursday

    Time Temperature Precipitation Wind Pressure Humidity
    00:00 +4°C° 2.2 mm 4 mps 710 mmHg 98%
    01:00 +3°C° 1 mm 4 mps 710 mmHg 97%
    02:00 +3°C° 1 mm 4 mps 710 mmHg 97%
    03:00 +3°C° 1 mm 4 mps 709 mmHg 96%
    04:00 +3°C° 1.1 mm 4 mps 709 mmHg 96%
    05:00 +3°C° 1.1 mm 4 mps 709 mmHg 96%
    06:00 +3°C° 1.1 mm 4 mps 709 mmHg 95%
    07:00 +1°C° 1.3 mm 4 mps 709 mmHg 95%
    08:00 +1°C° 1.3 mm 4 mps 710 mmHg 94%
    09:00 +1°C° 1.3 mm 4 mps 710 mmHg 93%
    10:00 +1°C° 1.5 mm 4 mps 711 mmHg 92%
    11:00 +1°C° 1.5 mm 4 mps 711 mmHg 92%
    12:00 +1°C° 1.5 mm 4 mps 712 mmHg 91%
    13:00 +2°C° 0.7 mm 3 mps 712 mmHg 90%
    14:00 +2°C° 0.7 mm 3 mps 712 mmHg 90%
    15:00 +4°C° 0.7 mm 2 mps 713 mmHg 89%
    16:00 +3°C° 0.1 mm 2 mps 713 mmHg 91%
    17:00 +2°C° 0.1 mm 1 mps 714 mmHg 93%
    18:00 +1°C° 0.1 mm 1 mps 715 mmHg 95%
    19:00 +1°C° 0 mm 1 mps 715 mmHg 95%
    20:00 +1°C° 0 mm 1 mps 716 mmHg 95%
    21:00 0°C° 0 mm 1 mps 716 mmHg 95%
    22:00 0°C° 0 mm 1 mps 717 mmHg 95%
    23:00 -1°C° 0 mm 1 mps 717 mmHg 95%
    Show more